390P/Gibbs (2006)

Japanese version
Home page
Updated on November 24, 2019

---------------------------------------------------------------------

* Profile

Designation 390P/2006 W1
Discovery Date November 16, 2006
Magnitude 18.6 mag
Discoverer A. R. Gibbs (Catalina Sky Survey)

* Orbital Elements

Epoch 2006 Apr. 15.0 TT = JDT 2453840.5                                         
T 2006 Mar. 29.65750 TT                                 Bell                    
q   1.7001589            (2000.0)            P               Q                  
n   0.07071145     Peri.  230.58096     +0.89055091     -0.43198481             
a   5.7917465      Node   154.05396     +0.44777264     +0.88767726             
e   0.7064514      Incl.   19.00870     -0.08011700     +0.15943087             
P  13.9                                                                         
From 170 observations 2006 Nov. 16-2019 Oct. 25, mean residual 0".7.            

* Finding Charts

* Magnitudes Graph

        m1 = 12.0 + 5 log d + 10.0 log r

---------------------------------------------------------------------

The orbital elements are published on M.P.E.C. 2019-U163.
The charts are made with StellaNavigator Ver.2.0 for Windows (AstroArts / ASCII).
The magnitudes graphs are made with Comet for Windows.

---------------------------------------------------------------------

Copyright(C) Seiichi Yoshida (comet@aerith.net). All rights reserved.